Flag for U.S.A. Weather past 2 weeks in Tuscaloosa, Alabama, U.S.A.

Now
73 °F

Clear.


Feels Like: 71 °F
Forecast: 74 / 96 °F
Wind: No wind

Location: Tuscaloosa Municipal Airport

Current Time: Aug 22, 2014 at 7:06:45 AM

Latest Report: Aug 22, 2014 at 5:53 AM


Visibility: 9 mi

Pressure: 30.09 "Hg

Humidity: 90%

Dew point: 70 °F

Location of TuscaloosaLocation

Historic Weather in Tuscaloosa — Graph

°F

Tuscaloosa temperature yesterday

Maximum temperature yesterday: 96 °F (at 4:53 PM)
Minimum temperature yesterday: 74 °F (at 3:53 AM)
Average temperature yesterday: 85 °F

Past Weeks' High & Low Weather Summary

 TemperatureHumidityPressure
High96 °F (Aug 8, 2:53 PM)97% (Aug 9, 7:53 PM)30.13 "Hg (Aug 9, 7:53 PM)
Low62 °F (Aug 14, 4:53 AM)32% (Aug 13, 4:53 PM)29.85 "Hg (Aug 12, 4:53 PM)
Average79 °F75%29.99 "Hg
* Reported Aug 7 5:53 AM — Aug 22 5:53 AM, Tuscaloosa, Weather by CustomWeather, © 2014

Note: Actual official high and low records may vary slightly from our data, if they occured in-between our weather recording intervals... More about our weather records

Advertising

Tuscaloosa weather history for previous 24 hours

 ConditionsComfort  
Time TempWeatherWind HumidityBarometerVisibility
5:53 AM
Aug 22
73 °FClear.No wind90%30.09 "Hg9 mi
4:53 AM73 °FClear.No wind90%30.07 "Hg10 mi
3:53 AM73 °FClear.No wind94%30.06 "Hg9 mi
2:53 AM73 °FClear.No wind94%30.06 "Hg10 mi
1:53 AM74 °FClear.No wind91%30.06 "Hg10 mi
12:53 AM77 °FClear.No wind82%30.06 "Hg10 mi
11:53 PM
Aug 21
78 °FClear.No wind79%30.06 "Hg10 mi
10:53 PM82 °FClear.3 mph67%30.09 "Hg10 mi
9:53 PM84 °FClear.8 mph70%30.11 "Hg10 mi
8:53 PM84 °FClear.No wind77%30.07 "Hg7 mi
7:53 PM87 °FSunny.No wind65%30.06 "Hg8 mi
6:53 PM92 °FSunny.3 mph51%30.05 "Hg7 mi
5:53 PM96 °FPassing clouds.6 mph41%30.04 "Hg7 mi
4:53 PM96 °FSunny.3 mph40%30.04 "Hg7 mi
3:53 PM94 °FSunny.No wind44%30.05 "Hg7 mi
2:53 PM95 °FPassing clouds.No wind44%30.08 "Hg7 mi
1:53 PM93 °FPartly sunny.5 mph47%30.10 "Hg7 mi
12:53 PM93 °FPassing clouds.6 mph47%30.12 "Hg7 mi
11:53 AM93 °FPassing clouds.9 mph50%30.13 "Hg7 mi
10:53 AM91 °FSunny.6 mph56%30.13 "Hg7 mi
9:53 AM87 °FSunny.6 mph63%30.13 "Hg7 mi
8:53 AM83 °FSunny.6 mph74%30.13 "Hg6 mi
7:53 AM77 °FFog.3 mph90%30.13 "Hg5 mi
Weather by CustomWeather, © 2014

See weather overviewHow to use our weather pages